Oroville, CA

7:36 PM PDT on October 15, 2019 (GMT -0700)
Oroville Municipal

Weather History for KOVE - September, 2019

Change the Weather History Date:

Monday, September 23, 2019

  Actual Average Record
Temperature  
Mean Temperature 74 °F -  
Max Temperature 88 °F 87 °F 102 °F (1964)
Min Temperature 59 °F 54 °F 45 °F (1988)
Cooling Degree Days 8    
Growing Degree Days 24 (Base 50)    
Moisture  
Dew Point 49 °F    
Average Humidity 46    
Maximum Humidity 81    
Minimum Humidity 24    
Precipitation  
Precipitation 0.00 in - - ()
Sea Level Pressure  
Sea Level Pressure 29.95 in    
Wind  
Wind Speed 7 mph (NW)    
Max Wind Speed 16 mph    
Max Gust Speed 26 mph    
Visibility 10 miles    
Events      
Averages and records for this station are not official NWS values.
T = Trace of Precipitation, MM = Missing Value Source: NWS Daily Summary

Daily Weather History Graph

Daily Weather History Graph

Search for Another Location

Airport or City:

Astronomy

Sep. 23, 2019 Rise Set
Actual Time 6:54 AM PDT 7:02 PM PDT
Civil Twilight 6:28 AM PDT 7:28 PM PDT
Nautical Twilight 5:56 AM PDT 8:00 PM PDT
Astronomical Twilight 5:24 AM PDT 8:32 PM PDT
Moon 12:44 AM PDT (9/23) 3:58 PM PDT (9/23)
Length of Visible Light 13h 00m
Length of Day
12h 07m
Waning Crescent, 32% of the Moon is Illuminated
Sep 23
Waning Crescent
Sep 28
New
Oct 5
First Quarter
Oct 13
Full
Oct 21
Last Quarter

Hourly Weather History & Observations

Time (PDT) Temp. Dew Point Humidity Pressure Visibility Wind Dir Wind Speed Gust Speed Precip Events Conditions
12:53 AM 66.0 °F 52.0 °F 60% 29.89 in 10.0 mi WNW 5.8 mph - N/A   Clear
1:53 AM 69.1 °F 52.0 °F 54% 29.90 in 10.0 mi SW 4.6 mph - N/A   Clear
2:53 AM 62.1 °F 52.0 °F 70% 29.90 in 10.0 mi North 3.5 mph - N/A   Clear
3:53 AM 62.1 °F 53.1 °F 72% 29.90 in 10.0 mi ESE 5.8 mph - N/A   Clear
4:53 AM 59.0 °F 53.1 °F 81% 29.91 in 10.0 mi NW 3.5 mph - N/A   Clear
5:53 AM 59.0 °F 51.1 °F 75% 29.92 in 10.0 mi NNW 3.5 mph - N/A   Clear
6:53 AM 60.1 °F 51.1 °F 72% 29.95 in 10.0 mi NW 4.6 mph - N/A   Clear
7:53 AM 62.1 °F 53.1 °F 72% 29.96 in 10.0 mi Variable 3.5 mph - N/A   Clear
8:53 AM 68.0 °F 52.0 °F 56% 29.98 in 10.0 mi NW 9.2 mph - N/A   Clear
9:53 AM 72.0 °F 52.0 °F 49% 29.99 in 10.0 mi NW 10.4 mph - N/A   Clear
10:53 AM 77.0 °F 51.1 °F 40% 29.99 in 10.0 mi NW 15.0 mph 21.9 mph N/A   Clear
11:53 AM 81.0 °F 50.0 °F 34% 29.99 in 10.0 mi NW 12.7 mph 23.0 mph N/A   Clear
12:53 PM 84.9 °F 48.9 °F 29% 29.97 in 10.0 mi NW 11.5 mph 19.6 mph N/A   Clear
1:53 PM 84.9 °F 48.9 °F 29% 29.96 in 10.0 mi WNW 16.1 mph 26.5 mph N/A   Clear
2:53 PM 87.1 °F 51.1 °F 29% 29.96 in 10.0 mi WNW 15.0 mph 25.3 mph N/A   Clear
3:53 PM 88.0 °F 48.0 °F 25% 29.94 in 10.0 mi NW 15.0 mph 25.3 mph N/A   Clear
4:53 PM 87.1 °F 46.0 °F 24% 29.94 in 10.0 mi NW 15.0 mph 24.2 mph N/A   Clear
5:53 PM 84.9 °F 46.9 °F 27% 29.95 in 10.0 mi NW 9.2 mph 19.6 mph N/A   Clear
6:53 PM 82.0 °F 44.1 °F 26% 29.96 in 10.0 mi NW 6.9 mph - N/A   Clear
7:53 PM 79.0 °F 44.1 °F 29% 29.97 in 10.0 mi NNW 6.9 mph - N/A   Clear
8:53 PM 73.9 °F 46.0 °F 37% 29.99 in 10.0 mi WNW 4.6 mph - N/A   Clear
9:53 PM 72.0 °F 46.9 °F 41% 29.99 in 10.0 mi NW 6.9 mph - N/A   Clear
10:53 PM 73.9 °F 44.1 °F 34% 30.00 in 10.0 mi NW 5.8 mph - N/A   Clear
11:53 PM 70.0 °F 45.0 °F 41% 30.00 in 10.0 mi NW 9.2 mph - N/A   Clear